Flag for USA

Past Weather in Wenatchee, Washington, USA — Yesterday and Last 2 Weeks

Now
57 °F

Clear.


Feels Like: 55 °F
Forecast: 76 / 58 °F
Wind: 8 mph from Northwest

Location: Pangborn Memorial Airport
Current Time: Sep 19, 2020 at 3:48:01 am
Latest Report: Sep 19, 2020 at 2:55 am
Visibility: 10 mi
Pressure29.88 "Hg
Humidity: 81%
Dew Point: 51 °F
Location of WenatcheeLocation

Past Weather in Wenatchee — Graph

°F

Wenatchee Temperature Yesterday

Maximum temperature yesterday: 70 °F (at 2:55 pm)
Minimum temperature yesterday: 57 °F (at 6:55 am)
Average temperature yesterday: 63 °F

High & Low Weather Summary for the Past Weeks

 TemperatureHumidityPressure
High97 °F (Sep 6, 4:32 pm)81% (Sep 19, 12:55 am)30.50 "Hg (Sep 19, 12:55 am)
Low46 °F (Sep 8, 6:55 am)15% (Sep 6, 2:55 pm)29.76 "Hg (Sep 18, 5:55 pm)
Average68 °F44%30.01 "Hg
* Reported Sep 4 1:55 am — Sep 19 1:55 am, Wenatchee. Weather by CustomWeather, © 2020

Note: Actual official high and low records may vary slightly from our data, if they occured in-between our weather recording intervals... More about our weather records

Wenatchee Weather History for the Previous 24 Hours

Scroll right to see more
 ConditionsComfort  
Time TempWeatherWind HumidityBarometerVisibility
1:55 am
Sat, Sep 19
59 °FClear.10 mph75%29.88 "Hg10 mi
12:55 am58 °FClear.7 mph81%29.88 "Hg10 mi
11:55 pm
Fri, Sep 18
59 °FClear.9 mph78%29.88 "Hg10 mi
10:55 pm60 °FPassing clouds.10 mph75%29.87 "Hg10 mi
9:55 pm62 °FClear.18 mph70%29.85 "Hg10 mi
8:55 pm62 °FClear.18 mph70%29.84 "Hg10 mi
7:55 pm64 °FClear.20 mph65%29.83 "Hg10 mi
7:43 pm65 °FPassing clouds.23 mph61%29.83 "Hg10 mi
7:07 pm67 °FMostly cloudy.7 mph63%29.81 "Hg3 mi
5:55 pm69 °FOvercast.8 mph59%29.76 "Hg2 mi
4:55 pm70 °FOvercast.13 mph55%29.77 "Hg2 mi
3:55 pm70 °FOvercast.13 mph53%29.77 "Hg2 mi
2:55 pm70 °FOvercast.13 mph53%29.78 "Hg2 mi
1:55 pm69 °FOvercast.12 mph57%29.79 "Hg2 mi
1:05 pm68 °FOvercast.12 mph57%29.81 "Hg2 mi
11:55 am67 °FOvercast.5 mph57%29.81 "Hg3 mi
10:55 am66 °FOvercast.3 mph54%29.82 "Hg3 mi
10:05 am65 °FOvercast.No wind56%29.84 "Hg3 mi
8:55 am61 °FOvercast.No wind65%29.82 "Hg3 mi
7:55 am57 °FOvercast.3 mph74%29.82 "Hg3 mi
7:09 am57 °FOvercast.3 mph72%29.83 "Hg3 mi
6:55 am57 °FOvercast.No wind72%29.81 "Hg4 mi
6:39 am58 °FOvercast.3 mph70%29.83 "Hg4 mi
5:55 am58 °FOvercast.8 mph70%29.81 "Hg4 mi
4:55 am59 °FOvercast.7 mph67%29.81 "Hg4 mi
3:55 am58 °FOvercast.9 mph70%29.81 "Hg4 mi
Weather by CustomWeather, © 2020

See weather overview